Location: *
(10.5081°N, 66.9194°W)
Time: 04:41:24
(UTC+00:00)

USA 229 DEB - Pass Details

Date: 30 March 2020
Orbit: 985 x 1227 km, 63.4° (Epoch: 21 May)

Event Time Altitude Azimuth Distance (km) Brightness Sun altitude
Rises 23:03:19 0° 348° (NNW) 4,067 7.0 -6.9°
Reaches altitude 10° 23:06:12 10° 355° (N) 3,129 6.3 -7.6°
Maximum altitude 23:13:19 43° 65° (ENE) 1,644 4.3 -9.4°
Drops below altitude 10° 23:20:31 10° 134° (SE) 3,176 5.7 -11.1°
Enters shadow 23:22:52 - 140° (SE) 3,944 6.2 -11.7°
